When you browse on this site, cookies collect data to enhance your experience and personalize the content and advertising you see.
Visit our Privacy Policy to learn more. By continuing to use the site, you agree to this use of cookies and data.
  • Em Portugal
  • Lista de países
  • Para 7 dias
  • Temperatura da água
  • Mapas de satélite
  • Mapa do tempo
  • Widgets de tempo
  • user-avatar
    Iniciar Sessão

    Previsão horária em Seki

    Hoje, 19 Março, Terça-feira

    Tempo Temperatura Precipitação Vento Pressão Humidade
    00:00 +4°C° 0 mm 2 m/s 749 mmHg 72%
    01:00 +4°C° 0 mm 2 m/s 750 mmHg 72%
    02:00 +3°C° 0 mm 2 m/s 750 mmHg 74%
    03:00 +2°C° 0 mm 3 m/s 750 mmHg 76%
    04:00 +1°C° 0 mm 3 m/s 750 mmHg 77%
    05:00 +2°C° 0 mm 3 m/s 751 mmHg 77%
    06:00 +2°C° 0 mm 3 m/s 751 mmHg 77%
    07:00 +2°C° 0 mm 3 m/s 752 mmHg 76%
    08:00 +3°C° 0 mm 3 m/s 752 mmHg 70%
    09:00 +5°C° 0 mm 4 m/s 752 mmHg 63%
    10:00 +6°C° 0 mm 4 m/s 753 mmHg 56%
    11:00 +7°C° 0 mm 4 m/s 753 mmHg 51%
    12:00 +7°C° 0 mm 4 m/s 753 mmHg 47%
    13:00 +8°C° 0 mm 4 m/s 753 mmHg 43%
    14:00 +8°C° 0 mm 4 m/s 753 mmHg 44%
    15:00 +7°C° 0 mm 4 m/s 754 mmHg 46%
    16:00 +7°C° 0 mm 4 m/s 754 mmHg 47%
    17:00 +7°C° 0 mm 3 m/s 754 mmHg 52%
    18:00 +6°C° 0 mm 2 m/s 755 mmHg 57%
    19:00 +6°C° 0 mm 1 m/s 755 mmHg 62%
    20:00 +4°C° 0 mm 2 m/s 756 mmHg 64%
    21:00 +4°C° 0 mm 2 m/s 756 mmHg 66%
    22:00 +3°C° 0 mm 2 m/s 756 mmHg 68%
    23:00 +3°C° 0 mm 2 m/s 757 mmHg 70%

    Amanhã, 20 Março, Quarta-feira

    Tempo Temperatura Precipitação Vento Pressão Humidade
    00:00 +3°C° 0 mm 2 m/s 757 mmHg 71%
    01:00 +2°C° 0 mm 2 m/s 758 mmHg 73%
    02:00 +2°C° 0 mm 2 m/s 758 mmHg 73%
    03:00 +1°C° 0 mm 2 m/s 758 mmHg 73%
    04:00 +2°C° 0 mm 1 m/s 758 mmHg 72%
    05:00 +2°C° 0 mm 1 m/s 759 mmHg 69%
    06:00 +3°C° 0 mm 1 m/s 759 mmHg 67%
    07:00 +3°C° 0 mm 1 m/s 759 mmHg 64%
    08:00 +5°C° 0 mm 1 m/s 760 mmHg 58%
    09:00 +6°C° 0 mm 2 m/s 760 mmHg 52%
    10:00 +7°C° 0 mm 2 m/s 760 mmHg 47%
    11:00 +8°C° 0 mm 2 m/s 760 mmHg 46%
    12:00 +9°C° 0 mm 3 m/s 760 mmHg 45%
    13:00 +9°C° 0 mm 3 m/s 760 mmHg 43%
    14:00 +9°C° 0 mm 3 m/s 760 mmHg 44%
    15:00 +9°C° 0 mm 3 m/s 760 mmHg 45%
    16:00 +9°C° 0 mm 3 m/s 760 mmHg 46%
    17:00 +8°C° 0 mm 3 m/s 760 mmHg 51%
    18:00 +7°C° 0 mm 2 m/s 760 mmHg 56%
    19:00 +5°C° 0 mm 2 m/s 760 mmHg 61%
    20:00 +5°C° 0 mm 2 m/s 760 mmHg 63%
    21:00 +4°C° 0 mm 2 m/s 761 mmHg 65%
    22:00 +4°C° 0 mm 2 m/s 761 mmHg 67%
    23:00 +3°C° 0 mm 2 m/s 761 mmHg 67%

    Depois de amanhã, 21 Março, Quinta-feira

    Tempo Temperatura Precipitação Vento Pressão Humidade
    00:00 +3°C° 0 mm 2 m/s 761 mmHg 68%
    01:00 +3°C° 0 mm 2 m/s 761 mmHg 69%
    02:00 +2°C° 0 mm 3 m/s 760 mmHg 69%
    03:00 +2°C° 0 mm 3 m/s 760 mmHg 69%
    04:00 +2°C° 0 mm 3 m/s 760 mmHg 69%
    05:00 +2°C° 0 mm 3 m/s 760 mmHg 68%
    06:00 +3°C° 0 mm 3 m/s 760 mmHg 68%
    07:00 +4°C° 0 mm 4 m/s 760 mmHg 67%
    08:00 +4°C° 0 mm 4 m/s 760 mmHg 68%
    09:00 +5°C° 0 mm 4 m/s 760 mmHg 69%
    10:00 +6°C° 0 mm 4 m/s 760 mmHg 69%
    11:00 +7°C° 0 mm 4 m/s 760 mmHg 68%
    12:00 +10°C° 0 mm 4 m/s 760 mmHg 66%
    13:00 +12°C° 0 mm 4 m/s 760 mmHg 64%
    14:00 +11°C° 0 mm 4 m/s 759 mmHg 66%
    15:00 +11°C° 0 mm 4 m/s 759 mmHg 68%
    16:00 +11°C° 0 mm 3 m/s 759 mmHg 70%
    17:00 +10°C° 0 mm 3 m/s 759 mmHg 75%
    18:00 +9°C° 0 mm 2 m/s 759 mmHg 80%
    19:00 +9°C° 0 mm 2 m/s 759 mmHg 85%
    20:00 +8°C° 0 mm 2 m/s 759 mmHg 87%
    21:00 +8°C° 0 mm 2 m/s 759 mmHg 89%
    22:00 +7°C° 0 mm 2 m/s 759 mmHg 91%
    23:00 +7°C° 0 mm 2 m/s 759 mmHg 91%

    22 Março, Sexta-feira

    Tempo Temperatura Precipitação Vento Pressão Humidade
    00:00 +8°C° 0 mm 2 m/s 759 mmHg 91%
    01:00 +8°C° 0 mm 2 m/s 759 mmHg 91%
    02:00 +8°C° 0 mm 2 m/s 759 mmHg 92%
    03:00 +8°C° 0 mm 2 m/s 759 mmHg 93%
    04:00 +8°C° 0 mm 2 m/s 759 mmHg 93%
    05:00 +8°C° 0 mm 2 m/s 759 mmHg 92%
    06:00 +8°C° 0 mm 2 m/s 759 mmHg 92%
    07:00 +8°C° 0 mm 2 m/s 759 mmHg 91%
    08:00 +9°C° 0 mm 2 m/s 758 mmHg 88%
    09:00 +9°C° 0 mm 2 m/s 758 mmHg 84%
    10:00 +10°C° 0 mm 3 m/s 758 mmHg 81%
    11:00 +11°C° 0 mm 3 m/s 758 mmHg 76%
    12:00 +13°C° 0 mm 2 m/s 758 mmHg 70%
    13:00 +14°C° 0 mm 2 m/s 757 mmHg 65%
    14:00 +14°C° 0 mm 2 m/s 757 mmHg 64%
    15:00 +13°C° 0 mm 3 m/s 757 mmHg 63%
    16:00 +13°C° 0 mm 3 m/s 756 mmHg 63%
    17:00 +13°C° 0 mm 2 m/s 756 mmHg 67%
    18:00 +12°C° 0 mm 2 m/s 756 mmHg 72%
    19:00 +10°C° 0 mm 2 m/s 756 mmHg 76%
    20:00 +10°C° 0 mm 2 m/s 756 mmHg 77%
    21:00 +9°C° 0 mm 2 m/s 756 mmHg 77%
    22:00 +9°C° 0 mm 2 m/s 756 mmHg 78%
    23:00 +9°C° 0 mm 2 m/s 756 mmHg 79%

    23 Março, Sábado

    Tempo Temperatura Precipitação Vento Pressão Humidade
    00:00 +9°C° 0 mm 2 m/s 756 mmHg 81%
    01:00 +9°C° 0 mm 2 m/s 756 mmHg 83%
    02:00 +8°C° 0 mm 2 m/s 755 mmHg 85%
    03:00 +8°C° 0 mm 2 m/s 755 mmHg 86%
    04:00 +7°C° 0 mm 2 m/s 755 mmHg 88%
    05:00 +8°C° 0 mm 2 m/s 755 mmHg 87%
    06:00 +8°C° 0 mm 2 m/s 756 mmHg 85%
    07:00 +9°C° 0 mm 2 m/s 756 mmHg 83%
    08:00 +10°C° 0 mm 3 m/s 756 mmHg 77%
    09:00 +12°C° 0 mm 3 m/s 756 mmHg 71%
    10:00 +13°C° 0 mm 3 m/s 756 mmHg 65%
    11:00 +14°C° 0 mm 3 m/s 756 mmHg 62%
    12:00 +15°C° 0 mm 4 m/s 755 mmHg 60%
    13:00 +15°C° 0 mm 4 m/s 755 mmHg 57%
    14:00 +16°C° 0.1 mm 3 m/s 755 mmHg 58%
    15:00 +16°C° 0.1 mm 3 m/s 755 mmHg 59%
    16:00 +16°C° 0.1 mm 2 m/s 754 mmHg 61%
    17:00 +14°C° 0 mm 2 m/s 754 mmHg 65%
    18:00 +13°C° 0 mm 2 m/s 754 mmHg 70%
    19:00 +12°C° 0 mm 1 m/s 754 mmHg 75%
    20:00 +12°C° 0 mm 1 m/s 754 mmHg 77%
    21:00 +11°C° 0 mm 1 m/s 754 mmHg 79%
    22:00 +9°C° 0 mm 2 m/s 754 mmHg 81%
    23:00 +9°C° 0 mm 2 m/s 753 mmHg 82%

    24 Março, Domingo

    Tempo Temperatura Precipitação Vento Pressão Humidade
    00:00 +9°C° 0 mm 2 m/s 753 mmHg 84%
    01:00 +8°C° 0 mm 2 m/s 752 mmHg 86%
    02:00 +8°C° 0 mm 2 m/s 752 mmHg 87%
    03:00 +8°C° 0 mm 3 m/s 751 mmHg 88%
    04:00 +8°C° 0 mm 3 m/s 751 mmHg 88%
    05:00 +8°C° 0 mm 3 m/s 750 mmHg 83%
    06:00 +8°C° 0 mm 4 m/s 750 mmHg 78%
    07:00 +10°C° 0 mm 4 m/s 750 mmHg 73%
    08:00 +12°C° 0 mm 5 m/s 750 mmHg 65%
    09:00 +14°C° 0 mm 5 m/s 749 mmHg 58%
    10:00 +16°C° 0 mm 6 m/s 749 mmHg 50%
    11:00 +17°C° 0 mm 6 m/s 748 mmHg 47%
    12:00 +18°C° 0 mm 7 m/s 748 mmHg 44%
    13:00 +20°C° 0 mm 7 m/s 747 mmHg 41%
    14:00 +18°C° 0 mm 7 m/s 747 mmHg 43%
    15:00 +18°C° 0 mm 7 m/s 747 mmHg 45%
    16:00 +19°C° 0 mm 6 m/s 746 mmHg 47%
    17:00 +16°C° 0 mm 6 m/s 746 mmHg 51%
    18:00 +14°C° 0 mm 5 m/s 746 mmHg 56%
    19:00 +13°C° 0 mm 4 m/s 747 mmHg 60%
    20:00 +12°C° 0 mm 4 m/s 747 mmHg 65%
    21:00 +11°C° 0 mm 4 m/s 747 mmHg 69%
    22:00 +10°C° 0 mm 3 m/s 747 mmHg 73%
    23:00 +9°C° 0 mm 3 m/s 747 mmHg 76%
    Mostrar mais